Time,TemperatureF,DewpointF,PressureIn,WindDirection,WindDirectionDegrees,WindSpeedMPH,WindSpeedGustMPH,Humidity,HourlyPrecipIn,Conditions,Clouds,dailyrainin,SoftwareType,DateUTC
2013-01-12 00:02:00,38.0,33.0,30.20,East,82,0.0,0.0,81,0.00,,,0.00,,2013-01-12 08:02:00,
2013-01-12 00:11:00,38.0,33.0,30.20,East,82,0.0,0.0,81,0.00,,,0.00,,2013-01-12 08:11:00,
2013-01-12 00:22:00,38.0,33.0,30.20,East,82,0.0,0.0,82,0.00,,,0.00,,2013-01-12 08:22:00,
2013-01-12 00:32:00,37.0,32.0,30.20,East,82,0.0,0.0,82,0.00,,,0.00,,2013-01-12 08:32:00,
2013-01-12 00:42:00,37.0,32.0,30.20,East,82,0.0,0.0,82,0.00,,,0.00,,2013-01-12 08:42:00,
2013-01-12 00:52:00,37.0,32.0,30.20,East,82,0.0,0.0,83,0.00,,,0.00,,2013-01-12 08:52:00,
2013-01-12 01:02:00,37.0,32.0,30.21,East,82,0.0,0.0,83,0.00,,,0.00,,2013-01-12 09:02:00,
2013-01-12 01:11:00,37.0,32.0,30.21,East,82,0.0,0.0,83,0.00,,,0.00,,2013-01-12 09:11:00,
2013-01-12 01:22:00,36.0,31.0,30.21,East,82,0.0,0.0,83,0.00,,,0.00,,2013-01-12 09:22:00,
2013-01-12 01:32:00,36.0,31.0,30.21,East,82,0.0,0.0,83,0.00,,,0.00,,2013-01-12 09:32:00,
2013-01-12 01:42:00,36.0,31.0,30.21,East,82,0.0,0.0,83,0.00,,,0.00,,2013-01-12 09:42:00,
2013-01-12 01:53:00,36.0,31.0,30.21,East,82,0.0,0.0,83,0.00,,,0.00,,2013-01-12 09:53:00,
2013-01-12 02:02:00,36.0,32.0,30.22,East,82,0.0,0.0,84,0.00,,,0.00,,2013-01-12 10:02:00,
2013-01-12 02:11:00,36.0,32.0,30.22,East,82,0.0,0.0,84,0.00,,,0.00,,2013-01-12 10:11:00,
2013-01-12 02:22:00,35.0,31.0,30.22,East,82,0.0,0.0,84,0.00,,,0.00,,2013-01-12 10:22:00,
2013-01-12 02:32:00,35.0,31.0,30.22,East,82,0.0,0.0,84,0.00,,,0.00,,2013-01-12 10:32:00,
2013-01-12 02:42:00,35.0,31.0,30.22,East,82,0.0,0.0,84,0.00,,,0.00,,2013-01-12 10:42:00,
2013-01-12 02:52:00,35.0,31.0,30.22,East,82,0.0,0.0,84,0.00,,,0.00,,2013-01-12 10:52:00,
2013-01-12 03:02:00,34.0,30.0,30.22,East,82,0.0,0.0,85,0.00,,,0.00,,2013-01-12 11:02:00,
2013-01-12 03:11:00,34.0,30.0,30.22,East,82,0.0,0.0,85,0.00,,,0.00,,2013-01-12 11:11:00,
2013-01-12 03:22:00,34.0,30.0,30.22,East,82,0.0,0.0,85,0.00,,,0.00,,2013-01-12 11:22:00,
2013-01-12 03:32:00,34.0,30.0,30.23,East,82,0.0,0.0,85,0.00,,,0.00,,2013-01-12 11:32:00,
2013-01-12 03:42:00,34.0,30.0,30.23,East,82,0.0,0.0,85,0.00,,,0.00,,2013-01-12 11:42:00,
2013-01-12 03:52:00,33.0,29.0,30.22,East,82,0.0,0.0,85,0.00,,,0.00,,2013-01-12 11:52:00,
2013-01-12 04:02:00,33.0,29.0,30.23,East,82,0.0,0.0,85,0.00,,,0.00,,2013-01-12 12:02:00,
2013-01-12 04:11:00,33.0,29.0,30.23,East,82,0.0,0.0,85,0.00,,,0.00,,2013-01-12 12:11:00,
2013-01-12 04:22:00,33.0,29.0,30.23,East,82,0.0,0.0,85,0.00,,,0.00,,2013-01-12 12:22:00,
2013-01-12 04:32:00,33.0,29.0,30.23,East,82,0.0,0.0,85,0.00,,,0.00,,2013-01-12 12:32:00,
2013-01-12 04:42:00,33.0,29.0,30.23,East,82,0.0,0.0,85,0.00,,,0.00,,2013-01-12 12:42:00,
2013-01-12 04:52:00,33.0,29.0,30.22,East,82,0.0,0.0,86,0.00,,,0.00,,2013-01-12 12:52:00,
2013-01-12 05:02:00,32.0,28.0,30.22,East,82,0.0,0.0,86,0.00,,,0.00,,2013-01-12 13:02:00,
2013-01-12 05:11:00,32.0,28.0,30.22,East,82,0.0,0.0,86,0.00,,,0.00,,2013-01-12 13:11:00,
2013-01-12 05:22:00,32.0,28.0,30.22,East,82,0.0,0.0,86,0.00,,,0.00,,2013-01-12 13:22:00,
2013-01-12 05:32:00,32.0,28.0,30.22,East,82,0.0,0.0,86,0.00,,,0.00,,2013-01-12 13:32:00,
2013-01-12 05:42:00,32.0,28.0,30.22,East,82,0.0,0.0,86,0.00,,,0.00,,2013-01-12 13:42:00,
2013-01-12 05:52:00,32.0,28.0,30.23,East,82,0.0,0.0,86,0.00,,,0.00,,2013-01-12 13:52:00,
2013-01-12 06:02:00,32.0,28.0,30.24,East,82,0.0,0.0,86,0.00,,,0.00,,2013-01-12 14:02:00,
2013-01-12 06:12:00,32.0,28.0,30.24,East,82,0.0,0.0,86,0.00,,,0.00,,2013-01-12 14:12:00,
2013-01-12 06:22:00,32.0,28.0,30.24,East,82,0.0,0.0,86,0.00,,,0.00,,2013-01-12 14:22:00,
2013-01-12 06:32:00,31.0,28.0,30.25,East,82,0.0,0.0,87,0.00,,,0.00,,2013-01-12 14:32:00,
2013-01-12 06:43:00,31.0,28.0,30.25,East,82,0.0,0.0,87,0.00,,,0.00,,2013-01-12 14:43:00,
2013-01-12 06:53:00,31.0,27.0,30.26,East,82,0.0,0.0,86,0.00,,,0.00,,2013-01-12 14:53:00,
2013-01-12 07:03:00,31.0,28.0,30.26,East,82,0.0,0.0,87,0.00,,,0.00,,2013-01-12 15:03:00,
2013-01-12 07:12:00,31.0,28.0,30.27,East,82,0.0,0.0,87,0.00,,,0.00,,2013-01-12 15:12:00,
2013-01-12 07:22:00,31.0,28.0,30.27,East,82,0.0,0.0,87,0.00,,,0.00,,2013-01-12 15:22:00,
2013-01-12 07:33:00,31.0,28.0,30.27,East,82,0.0,0.0,87,0.00,,,0.00,,2013-01-12 15:33:00,
2013-01-12 07:42:00,31.0,28.0,30.27,East,82,0.0,0.0,87,0.00,,,0.00,,2013-01-12 15:42:00,
2013-01-12 07:52:00,31.0,28.0,30.27,East,82,0.0,0.0,87,0.00,,,0.00,,2013-01-12 15:52:00,
2013-01-12 08:02:00,30.0,27.0,30.28,East,82,0.0,0.0,87,0.00,,,0.00,,2013-01-12 16:02:00,
2013-01-12 08:22:00,30.0,27.0,30.27,East,82,0.0,0.0,87,0.00,,,0.00,,2013-01-12 16:22:00,
2013-01-12 08:32:00,30.0,27.0,30.28,East,82,0.0,0.0,87,0.00,,,0.00,,2013-01-12 16:32:00,
2013-01-12 08:52:00,30.0,27.0,30.28,East,82,0.0,0.0,87,0.00,,,0.00,,2013-01-12 16:52:00,
2013-01-12 09:02:00,31.0,28.0,30.28,East,82,0.0,0.0,88,0.00,,,0.00,,2013-01-12 17:02:00,
2013-01-12 09:22:00,36.0,33.0,30.28,East,82,0.0,0.0,90,0.00,,,0.00,,2013-01-12 17:22:00,
2013-01-12 09:32:00,41.0,36.0,30.28,East,82,0.0,0.0,82,0.00,,,0.00,,2013-01-12 17:32:00,
2013-01-12 09:42:00,41.0,36.0,30.28,East,82,0.0,0.0,82,0.00,,,0.00,,2013-01-12 17:42:00,
2013-01-12 09:53:00,41.0,34.0,30.28,East,82,0.0,1.0,75,0.00,,,0.00,,2013-01-12 17:53:00,
2013-01-12 10:02:00,42.0,32.0,30.28,East,82,0.0,0.0,68,0.00,,,0.00,,2013-01-12 18:02:00,
2013-01-12 10:12:00,42.0,32.0,30.28,East,82,0.0,0.0,68,0.00,,,0.00,,2013-01-12 18:12:00,
2013-01-12 10:22:00,44.0,30.0,30.28,ESE,115,0.0,4.0,58,0.00,,,0.00,,2013-01-12 18:22:00,
2013-01-12 10:33:00,44.0,31.0,30.28,ENE,57,0.0,4.0,59,0.00,,,0.00,,2013-01-12 18:33:00,
2013-01-12 10:42:00,44.0,31.0,30.28,ENE,57,0.0,4.0,59,0.00,,,0.00,,2013-01-12 18:42:00,
2013-01-12 10:52:00,46.0,30.0,30.27,East,82,0.0,0.0,54,0.00,,,0.00,,2013-01-12 18:52:00,
2013-01-12 11:02:00,46.0,30.0,30.27,East,82,0.0,0.0,54,0.00,,,0.00,,2013-01-12 19:02:00,
2013-01-12 11:12:00,46.0,30.0,30.27,East,82,0.0,0.0,54,0.00,,,0.00,,2013-01-12 19:12:00,
2013-01-12 11:22:00,47.0,29.0,30.27,East,92,0.0,4.0,50,0.00,,,0.00,,2013-01-12 19:22:00,
2013-01-12 11:32:00,47.0,30.0,30.26,East,100,0.0,0.0,51,0.00,,,0.00,,2013-01-12 19:32:00,
2013-01-12 11:43:00,47.0,30.0,30.26,East,100,0.0,0.0,51,0.00,,,0.00,,2013-01-12 19:43:00,
2013-01-12 11:52:00,47.0,27.0,30.25,ESE,118,0.0,3.0,45,0.00,,,0.00,,2013-01-12 19:52:00,
2013-01-12 12:02:00,47.0,26.0,30.24,ENE,57,0.0,2.0,44,0.00,,,0.00,,2013-01-12 20:02:00,
2013-01-12 12:12:00,48.0,27.0,30.23,ENE,65,0.0,3.0,43,0.00,,,0.00,,2013-01-12 20:12:00,
2013-01-12 12:22:00,48.0,27.0,30.23,ENE,65,0.0,3.0,43,0.00,,,0.00,,2013-01-12 20:22:00,
2013-01-12 12:32:00,48.0,25.0,30.22,NE,56,0.0,3.0,41,0.00,,,0.00,,2013-01-12 20:32:00,
2013-01-12 12:42:00,48.0,25.0,30.22,NE,56,0.0,3.0,41,0.00,,,0.00,,2013-01-12 20:42:00,
2013-01-12 12:53:00,49.0,25.0,30.22,ENE,72,0.0,4.0,39,0.00,,,0.00,,2013-01-12 20:53:00,
2013-01-12 13:02:00,48.0,24.0,30.21,NE,55,0.0,3.0,38,0.00,,,0.00,,2013-01-12 21:02:00,
2013-01-12 13:12:00,50.0,23.0,30.21,NE,56,0.0,2.0,35,0.00,,,0.00,,2013-01-12 21:12:00,
2013-01-12 13:22:00,50.0,23.0,30.21,NE,56,0.0,2.0,35,0.00,,,0.00,,2013-01-12 21:22:00,
2013-01-12 13:32:00,50.0,24.0,30.20,NNE,24,0.0,3.0,36,0.00,,,0.00,,2013-01-12 21:32:00,
2013-01-12 13:42:00,50.0,24.0,30.20,NNE,24,0.0,3.0,36,0.00,,,0.00,,2013-01-12 21:42:00,
2013-01-12 13:53:00,49.0,21.0,30.20,NNE,30,0.0,5.0,33,0.00,,,0.00,,2013-01-12 21:53:00,
2013-01-12 14:02:00,50.0,24.0,30.19,ENE,59,0.0,3.0,36,0.00,,,0.00,,2013-01-12 22:02:00,
2013-01-12 14:11:00,50.0,24.0,30.19,ENE,59,0.0,3.0,36,0.00,,,0.00,,2013-01-12 22:11:00,
2013-01-12 14:22:00,50.0,22.0,30.19,NE,39,0.0,4.0,33,0.00,,,0.00,,2013-01-12 22:22:00,
2013-01-12 14:32:00,50.0,25.0,30.19,NE,52,0.0,4.0,38,0.00,,,0.00,,2013-01-12 22:32:00,
2013-01-12 14:42:00,50.0,25.0,30.19,NE,52,0.0,4.0,38,0.00,,,0.00,,2013-01-12 22:42:00,
2013-01-12 14:52:00,49.0,21.0,30.19,ESE,111,0.0,0.0,33,0.00,,,0.00,,2013-01-12 22:52:00,
2013-01-12 15:02:00,49.0,22.0,30.19,NNE,15,0.0,3.0,34,0.00,,,0.00,,2013-01-12 23:02:00,
2013-01-12 15:12:00,49.0,23.0,30.18,NE,40,0.0,0.0,36,0.00,,,0.00,,2013-01-12 23:12:00,
2013-01-12 15:22:00,49.0,23.0,30.18,NE,40,0.0,0.0,36,0.00,,,0.00,,2013-01-12 23:22:00,
2013-01-12 15:32:00,49.0,23.0,30.18,North,10,0.0,3.0,36,0.00,,,0.00,,2013-01-12 23:32:00,
2013-01-12 15:42:00,49.0,23.0,30.18,North,10,0.0,3.0,36,0.00,,,0.00,,2013-01-12 23:42:00,
2013-01-12 15:53:00,48.0,22.0,30.18,NNE,19,0.0,3.0,35,0.00,,,0.00,,2013-01-12 23:53:00,
2013-01-12 16:02:00,48.0,23.0,30.17,NNE,29,0.0,1.0,37,0.00,,,0.00,,2013-01-13 00:02:00,
2013-01-12 16:12:00,48.0,23.0,30.17,NNE,29,0.0,1.0,37,0.00,,,0.00,,2013-01-13 00:12:00,
2013-01-12 16:22:00,48.0,23.0,30.17,NE,48,0.0,3.0,37,0.00,,,0.00,,2013-01-13 00:22:00,
2013-01-12 16:32:00,47.0,23.0,30.17,NE,50,0.0,0.0,39,0.00,,,0.00,,2013-01-13 00:32:00,
2013-01-12 16:42:00,47.0,23.0,30.17,NE,50,0.0,0.0,39,0.00,,,0.00,,2013-01-13 00:42:00,
2013-01-12 16:52:00,47.0,25.0,30.17,NE,49,0.0,0.0,41,0.00,,,0.00,,2013-01-13 00:52:00,
2013-01-12 17:02:00,47.0,25.0,30.17,NE,50,0.0,0.0,42,0.00,,,0.00,,2013-01-13 01:02:00,
2013-01-12 17:11:00,47.0,25.0,30.17,NE,50,0.0,0.0,42,0.00,,,0.00,,2013-01-13 01:11:00,
2013-01-12 17:22:00,47.0,25.0,30.17,NE,50,0.0,0.0,42,0.00,,,0.00,,2013-01-13 01:22:00,
2013-01-12 17:32:00,47.0,25.0,30.17,NE,50,0.0,0.0,42,0.00,,,0.00,,2013-01-13 01:32:00,